[[{"header":{"parameterUnit":"m.s-1","parameterCategory":1,"la1":30.2991,"la2":30.254,"lo1":-89.0895,"lo2":-89.0444,"dy":0.0017,"dx":0.0017,"nx":28,"ny":28,"refTime":"2025-06-09T03:00:00:Z","depth":0,"parameterNumber":2,"parameterNumberName":"U-component_of_WINDS"},"data":[0,0,0,0,0,0,0,0,0,0,0,0,0,0,0,0,0,0,0,0,0,0,0,0,0,0,0,0,0,0,0,0,0,0,0,0,0,0,0,0,0,0,0,0,0,0,0,0,0,0,0,0,0,0,0,0,0,0,0.3754,0.3755,0,0.3838,0.3839,0.384,0.3895,0.3895,0.3896,0.3896,0.3984,0.3985,0.3987,0,0,0,0,0,0,0,0,0,0,0,0,0,0.3644,0.3646,0.3754,0.3755,0.3756,0.3838,0.3839,0.384,0.3895,0.3895,0.3896,0.3896,0.3983,0.3985,0.3988,0,0,0,0,0,0,0,0,0,0,0,0,0,0.3706,0.3646,0.3754,0.3793,0.3798,0.3837,0.3839,0.384,0.3895,0.3895,0.3896,0.3896,0.3982,0.3985,0.3988,0.3996,0,0,0.3997,0.3998,0,0,0,0,0,0,0,0,0.3703,0.371,0.3787,0.3791,0.3796,0.3856,0.3832,0.3892,0.3895,0.3858,0.3896,0.3897,0.3941,0.3947,0.3962,0.4,0.4004,0.3997,0.3999,0.4,0.4001,0,0,0,0,0,0,0,0.3698,0.3707,0.3787,0.3788,0.3793,0.3808,0.3817,0.3844,0.3895,0.3861,0.3865,0.3874,0.3944,0.3959,0.3964,0.4005,0.3997,0.4,0.4002,0.4003,0.4055,0.4054,0,0,0,0,0,0,0.3688,0.3703,0.3785,0.379,0.375,0.3809,0.382,0.3836,0.3895,0.3905,0.3874,0.3877,0.3954,0.3961,0.3968,0.3982,0.4,0.4003,0.4005,0.4055,0.4055,0.4054,0,0,0,0,0,0,0.3685,0.3694,0.3781,0.3748,0.376,0.381,0.3829,0.3838,0.3853,0.3905,0.3915,0.388,0.3954,0.3963,0.3989,0.3985,0.4005,0.4007,0.4056,0.4055,0.4055,0.4009,0,0,0,0,0,0,0.3682,0.3693,0.3696,0.3747,0.3761,0.38,0.3829,0.3839,0.3858,0.3862,0.3913,0.3922,0.3955,0.3984,0.3991,0.399,0.401,0.4056,0.4056,0.4055,0.4011,0.4007,0.4003,0,0,0,0,0,0.3677,0.368,0.3696,0.3705,0.3766,0.3799,0.3808,0.3845,0.3857,0.3861,0.3895,0.392,0.3984,0.3986,0.3995,0.3994,0.4057,0.4056,0.4055,0.4013,0.4008,0.4003,0,0,0,0,0,0,0.3627,0.3687,0.3705,0.3724,0.3756,0.3809,0.3815,0.3839,0.3868,0.3871,0.3917,0.3928,0.3949,0.3974,0.3975,0.4006,0.4024,0.4025,0.3988,0.3984,0.398,0.3974,0.4012,0,0,0,0,0,0.3618,0.3639,0.3691,0.3703,0.3718,0.3763,0.3779,0.3806,0.3841,0.3855,0.389,0.3924,0.3952,0.3969,0.3998,0.4015,0.4027,0.4019,0.4015,0.4012,0.4012,0.4024,0.4021,0.4051,0.4051,0.4051,0,0,0.3599,0.3635,0.3646,0.3694,0.3722,0.3744,0.3774,0.3796,0.3814,0.3859,0.3884,0.3911,0.3952,0.3974,0.3985,0.3995,0.4006,0.401,0.4007,0.401,0.4023,0.402,0.4017,0.4051,0.4051,0.4051,0,0,0.3578,0.3606,0.362,0.3647,0.3689,0.3719,0.3722,0.3771,0.3791,0.3818,0.3852,0.3874,0.392,0.3949,0.3969,0.3959,0.3984,0.3967,0.3947,0.3958,0.3956,0.3954,0.3951,0.395,0.3967,0.3967,0.3967,0,0.355,0.3584,0.3624,0.3644,0.3664,0.3706,0.372,0.3745,0.3794,0.3808,0.3819,0.3879,0.3909,0.3938,0.3936,0.3951,0.3957,0.3961,0.3953,0.3951,0.395,0.3948,0.3947,0.3964,0.3965,0.3965,0.3965,0,0.3548,0.3572,0.3578,0.3624,0.3645,0.3662,0.3705,0.3722,0.3747,0.3776,0.3803,0.3841,0.3879,0.3887,0.3912,0.392,0.3926,0.3944,0.3963,0.3944,0.3943,0.3943,0.3961,0.3962,0.3963,0.3963,0,0,0.3497,0.3565,0.3567,0.3589,0.3638,0.3657,0.3677,0.3713,0.3727,0.376,0.3778,0.3817,0.3835,0.3858,0.3886,0.3895,0.3886,0.3913,0.3915,0.3908,0.39,0.3886,0.3884,0.3903,0.3903,0.3903,0.3896,0,0.3483,0.352,0.3557,0.3581,0.3604,0.3643,0.3661,0.3694,0.3722,0.3746,0.3777,0.3805,0.3825,0.384,0.3851,0.3885,0.3886,0.3886,0.3922,0.3923,0.3911,0.3884,0.3869,0.3861,0.3896,0.3896,0.3896,0,0.3472,0.3503,0.3529,0.3577,0.3588,0.3603,0.364,0.3662,0.37,0.372,0.3746,0.3776,0.38,0.3816,0.385,0.385,0.3867,0.3886,0.3886,0.3892,0.3909,0.3889,0.3859,0.3858,0.3896,0.3896,0.3896,0,0.3433,0.3481,0.3503,0.3521,0.3577,0.3587,0.3611,0.365,0.367,0.3702,0.3716,0.375,0.377,0.3796,0.3835,0.3843,0.3865,0.3884,0.3884,0.3883,0.3887,0.3886,0.386,0.3896,0.3896,0.3896,0.3896,0,0.3414,0.3429,0.3487,0.35,0.3519,0.3561,0.3578,0.3606,0.364,0.3661,0.3698,0.3716,0.3766,0.3791,0.3821,0.3846,0.3854,0.3871,0.388,0.3869,0.3866,0.3881,0.3883,0.3896,0.3896,0.3896,0.3896,0,0.3374,0.3413,0.344,0.3492,0.3505,0.3516,0.3561,0.3576,0.3607,0.3632,0.3641,0.3689,0.372,0.3761,0.3806,0.3826,0.3847,0.3859,0.3834,0.3839,0.3836,0.3836,0.3819,0.3819,0.3854,0.3853,0.3853,0,0.336,0.3372,0.3425,0.3441,0.3464,0.349,0.351,0.3553,0.3573,0.3618,0.3628,0.3662,0.3692,0.374,0.378,0.3814,0.3828,0.3819,0.3833,0.3822,0.3829,0.3828,0.383,0.3816,0.3815,0.3815,0.3815,0,0.3331,0.335,0.3377,0.3412,0.3435,0.3465,0.3496,0.3507,0.3557,0.3577,0.361,0.3632,0.3678,0.3712,0.3751,0.3778,0.3805,0.381,0.3812,0.3801,0.3786,0.3795,0.3825,0.381,0.3811,0.3811,0.3811,0.3811,0.3304,0.3317,0.3357,0.3387,0.3415,0.3443,0.346,0.3493,0.352,0.356,0.3584,0.3616,0.3655,0.3711,0.3736,0.3762,0.3773,0.3775,0.3776,0.3776,0.3773,0.3781,0.377,0.377,0.377,0.377,0.377,0,0.3278,0.3305,0.3332,0.3375,0.3399,0.3421,0.3457,0.3476,0.3503,0.3537,0.3566,0.3604,0.3637,0.3679,0.3715,0.3728,0.3742,0.3736,0.3736,0.3742,0.3761,0.3756,0.3725,0.3725,0.3725,0.3725,0.3725,0.3725,0.3267,0.3291,0.3315,0.3353,0.3381,0.3412,0.3431,0.3457,0.3485,0.3525,0.3553,0.358,0.3618,0.3657,0.3689,0.3701,0.3713,0.3704,0.372,0.3737,0.3741,0.3745,0.374,0.3706,0.3706,0.3699,0.3699,0.3699]},{"header":{"parameterUnit":"m.s-1","parameterCategory":1,"la1":30.2991,"la2":30.254,"lo1":-89.0895,"lo2":-89.0444,"dy":0.0017,"dx":0.0017,"nx":28,"ny":28,"refTime":"2025-06-09T03:00:00:Z","depth":0,"parameterNumber":3,"parameterNumberName":"V-component_of_WINDS"},"data":[0,0,0,0,0,0,0,0,0,0,0,0,0,0,0,0,0,0,0,0,0,0,0,0,0,0,0,0,0,0,0,0,0,0,0,0,0,0,0,0,0,0,0,0,0,0,0,0,0,0,0,0,0,0,0,0,0,0,2.1428,2.1428,0,2.1425,2.1425,2.1425,2.1358,2.1356,2.1354,2.1353,2.1351,2.1352,2.1354,0,0,0,0,0,0,0,0,0,0,0,0,0,2.1378,2.1379,2.1428,2.1428,2.1428,2.1425,2.1425,2.1424,2.1358,2.1356,2.1354,2.1352,2.135,2.1352,2.1354,0,0,0,0,0,0,0,0,0,0,0,0,0,2.139,2.138,2.1428,2.1395,2.1392,2.1425,2.1425,2.1424,2.1359,2.1356,2.1353,2.1351,2.135,2.1352,2.1354,2.142,0,0,2.1361,2.1362,0,0,0,0,0,0,0,0,2.1389,2.1392,2.14,2.1397,2.1394,2.1389,2.1406,2.1423,2.1359,2.1371,2.1353,2.135,2.1366,2.1367,2.1372,2.142,2.142,2.1361,2.1363,2.1364,2.1365,0,0,0,0,0,0,0,2.1388,2.1391,2.1427,2.14,2.1396,2.138,2.1378,2.1409,2.1383,2.137,2.1365,2.1365,2.1364,2.1369,2.1371,2.142,2.1361,2.1363,2.1365,2.1366,2.1517,2.152,0,0,0,0,0,0,2.1392,2.1391,2.1427,2.1427,2.1385,2.1383,2.1381,2.1393,2.1382,2.1378,2.1368,2.1362,2.1367,2.1368,2.1371,2.1443,2.1364,2.1366,2.1367,2.1515,2.1518,2.1521,0,0,0,0,0,0,2.1391,2.1396,2.1427,2.1408,2.141,2.1386,2.14,2.1394,2.14,2.1381,2.1376,2.1378,2.1365,2.1367,2.1407,2.1442,2.1367,2.1369,2.1511,2.1516,2.1519,2.1592,0,0,0,0,0,0,2.139,2.1396,2.1421,2.1409,2.1412,2.1464,2.1402,2.1396,2.1404,2.1397,2.1389,2.1386,2.1363,2.1404,2.1409,2.1444,2.1371,2.1508,2.1513,2.1518,2.1586,2.1597,2.1607,0,0,0,0,0,2.1389,2.1443,2.1423,2.1427,2.1442,2.1466,2.1468,2.144,2.1407,2.1431,2.1419,2.1386,2.1438,2.1409,2.1414,2.145,2.1506,2.1512,2.1518,2.1581,2.1595,2.1607,0,0,0,0,0,0,2.1462,2.1441,2.1418,2.147,2.147,2.1455,2.1485,2.1457,2.1467,2.146,2.1426,2.1424,2.1469,2.1464,2.1431,2.1511,2.1466,2.1473,2.1512,2.1526,2.1536,2.1535,2.1373,0,0,0,0,0,2.1483,2.1504,2.1485,2.1533,2.1534,2.151,2.1519,2.1497,2.1496,2.1496,2.1486,2.1487,2.1503,2.1515,2.1529,2.1585,2.1581,2.1613,2.1624,2.1633,2.1639,2.1665,2.1677,2.154,2.154,2.154,0,0,2.1529,2.152,2.1536,2.1547,2.1545,2.1566,2.151,2.1537,2.1552,2.1501,2.1536,2.1529,2.1527,2.1575,2.1595,2.1572,2.1676,2.164,2.1648,2.1649,2.1672,2.1685,2.1697,2.1544,2.1543,2.1543,0,0,2.1623,2.162,2.1657,2.1655,2.1651,2.1634,2.1643,2.1632,2.1624,2.1659,2.162,2.1639,2.1668,2.1667,2.1671,2.1761,2.173,2.1767,2.1823,2.1848,2.1859,2.1869,2.1898,2.1909,2.1774,2.1774,2.1774,0,2.168,2.1711,2.168,2.1707,2.1712,2.1666,2.1702,2.1702,2.1704,2.1708,2.1683,2.1716,2.1712,2.1757,2.1778,2.1784,2.1791,2.1767,2.186,2.1869,2.1878,2.1905,2.1916,2.1778,2.1778,2.1777,2.1777,0,2.178,2.1802,2.1832,2.1833,2.1841,2.1874,2.1847,2.1859,2.1837,2.1822,2.1857,2.185,2.186,2.187,2.1849,2.1911,2.1896,2.1866,2.1819,2.1895,2.192,2.1931,2.1784,2.1783,2.1781,2.178,0,0,2.1919,2.19,2.1912,2.191,2.1901,2.1917,2.1947,2.1955,2.1965,2.1968,2.199,2.2015,2.1986,2.199,2.1969,2.1992,2.2059,2.1958,2.1957,2.1974,2.2123,2.2144,2.2156,2.204,2.2042,2.2043,2.2122,0,2.2007,2.2054,2.2026,2.2078,2.2096,2.2051,2.2076,2.2074,2.2061,2.2074,2.206,2.2076,2.2039,2.204,2.2061,2.2047,2.2088,2.2041,2.2058,2.2059,2.2057,2.217,2.2192,2.2267,2.2132,2.2134,2.2135,0,2.2115,2.2119,2.2172,2.2157,2.2164,2.2187,2.219,2.2205,2.22,2.2189,2.2192,2.2164,2.219,2.2146,2.2181,2.2149,2.2155,2.2149,2.2151,2.2149,2.21,2.2168,2.2291,2.2301,2.2151,2.2149,2.2148,0,2.2206,2.2227,2.2259,2.226,2.2244,2.2261,2.2255,2.2248,2.2254,2.2258,2.2261,2.2269,2.2272,2.2278,2.2253,2.2223,2.229,2.2244,2.2279,2.228,2.2294,2.2293,2.2415,2.2303,2.2302,2.2302,2.2302,0,2.2305,2.2338,2.23,2.232,2.2355,2.2323,2.2359,2.2348,2.2342,2.2358,2.2322,2.2338,2.2305,2.2318,2.2298,2.2328,2.2331,2.2322,2.2315,2.2323,2.2324,2.2324,2.2317,2.2305,2.2305,2.2304,2.2303,0,2.2413,2.2389,2.2421,2.2402,2.2399,2.2425,2.2409,2.2426,2.2411,2.2432,2.2435,2.241,2.2423,2.2399,2.241,2.2396,2.2437,2.2425,2.2438,2.2433,2.2468,2.2464,2.2593,2.2607,2.2489,2.249,2.2491,0,2.2476,2.25,2.2483,2.2491,2.2486,2.25,2.2505,2.2474,2.2481,2.2476,2.2493,2.2503,2.2509,2.2532,2.2514,2.2521,2.2507,2.2551,2.2507,2.2513,2.2503,2.2501,2.2501,2.256,2.2561,2.2562,2.2563,0,2.2589,2.2575,2.2583,2.2587,2.2593,2.2595,2.2594,2.2603,2.257,2.2579,2.2591,2.2595,2.2604,2.2613,2.2616,2.261,2.258,2.2578,2.2585,2.2592,2.2597,2.2591,2.2459,2.2574,2.2573,2.2572,2.2572,2.2571,2.2673,2.2691,2.2681,2.2691,2.2686,2.2686,2.27,2.2685,2.2694,2.2698,2.268,2.2695,2.2687,2.2688,2.2684,2.2695,2.2675,2.2688,2.269,2.2693,2.2697,2.2598,2.2696,2.2696,2.2696,2.2695,2.2695,0,2.2781,2.2772,2.2781,2.278,2.2787,2.2758,2.2755,2.2763,2.2777,2.2772,2.2778,2.279,2.2798,2.2781,2.2786,2.2798,2.2785,2.28,2.2798,2.2796,2.2717,2.2707,2.2811,2.2811,2.2811,2.2811,2.2811,2.2811,2.2838,2.2865,2.285,2.2874,2.2865,2.2879,2.2879,2.2877,2.2873,2.2888,2.2894,2.2883,2.2872,2.2876,2.2882,2.2876,2.2879,2.2898,2.2888,2.2814,2.2802,2.2791,2.2782,2.29,2.29,2.2966,2.2967,2.2967]}]]